SL-16 DEB, 22342

Orbit data source: Space-Track

SL-16 DEB, 22342 is space debris in LEO originally from a launch on Fri, 25 Dec 1992 UTC launched from the Tyuratam Missile And Space Complex (TTMTR). Debris objects in space refer to the collection of defunct objects orbiting the Earth. Examples of debris include non-operational satellites, rocket bodies, and fragments generated from explosions, collisions, or faulty payload assembly.

Loading next visibility...
Identifier
22342, 1992-093AF
Orbit
LEO
Country
Flag of CISCIS
Related business
Manufacturer
Unknown
Mission
Spacecraft
Bus & Motor
Unknown
Mass
Unknown
Launch date (UTC)
1992-12-25 (33 years ago)
Launch vehicle
Unknown
Launch site
Tyuratam Missile And Space Complex (TTMTR)
Object type
Payload
Rocket body
Debris
Shape & HBR
Unknown
Radar Cross Section
Small (<0.1 m²)

Expand to show TLE details & history
Last TLE update: 1 day ago

TLE from 1 day ago
0 SL-16 DEB
1 22342U 92093AF  25241.83561181  .00000376  00000-0  29942-3 0  9998
2 22342  70.6969 264.3515 0116356 142.8532  37.2956 13.94528151657420
Epoch: 2025-08-29T20:03Z
TLE epoch observation values (Epoch: 2025-08-29T20:03:16.86Z)
Latitude
-1.02304°
Longitude
165.60916°
Altitude
848.171 km
Speed
7.463 km/s
True Right ascension
05h 38m 49s
True Declination
-1° 01' 01"
Sunlit
Object was in daylight at epoch
Visualization orbit readout
Latitude
Unknown
Longitude
Unknown
Altitude
Unknown
Speed
Unknown
Apparent Right ascension
Unknown
Apparent Declination
Unknown
Sunlit
N/A
Visualization observer readout
Local Sidereal Time
15:58:59
Azimuth
Unknown
Elevation
Unknown
Doppler factor
Unknown
Orbital elements
Apogee altitude
995.59 km
Perigee altitude
825.969 km
Semi-major axis
7,288.916 km
Eccentricity
0.01164
Inclination
70.6969°
RAAN
264.3515°
Arg. of periapsis
142.8532°
True anomaly
38.11293°
Mean anomaly
37.2956°
Eccentric anomaly
37.70332°
Mean motion
3.48778 °/min
Orbital period
103.22 mins
BSTAR
0.00029942
Loading maneuver chart data...
Computing Atmospheric mass density...
Loading historical data...
Loading historical data...
Loading historical data...
Loading historical data...
Loading historical data...
Loading historical data...
Loading historical data...

Documentation

Showing up to 5 results
|